Malaga, Spain

2:12 AM CEST on April 21, 2018 (GMT +0200)
Malaga

Weather History for LEMG - November, 2013

Change the Weather History Date:

Monday, November 11, 2013

  Actual Average Record
Temperature  
Mean Temperature 69 °F -  
Max Temperature 78 °F 63 °F 78 °F (1998)
Min Temperature 60 °F 49 °F 37 °F (2001)
Cooling Degree Days 4    
Growing Degree Days 19 (Base 50)    
Moisture  
Dew Point 43 °F    
Average Humidity 40    
Maximum Humidity 82    
Minimum Humidity 19    
Precipitation  
Precipitation 0.00 in 0.14 in - ()
Sea Level Pressure  
Sea Level Pressure 30.13 in    
Wind  
Wind Speed 13 mph ()    
Max Wind Speed 23 mph    
Max Gust Speed -    
Visibility 11.9 miles    
Events      
Averages and records for this station are not official NWS values.
T = Trace of Precipitation, MM = Missing Value Source: Averaged Metar Reports

Daily Weather History Graph

Daily Weather History Graph

Search for Another Location

Airport or City:

Astronomy

Nov. 11, 2013 Rise Set
Actual Time 7:51 AM CET 6:11 PM CET
Civil Twilight 7:24 AM CET 6:39 PM CET
Nautical Twilight 6:53 AM CET 7:10 PM CET
Astronomical Twilight 6:22 AM CET 7:40 PM CET
Moon 2:35 PM CET (11/11) 1:31 AM CET (11/11)
Length of Visible Light 11h 14m
Length of Day
10h 20m
Waxing Gibbous, 63% of the Moon is Illuminated
Nov 11
Waxing Gibbous
Nov 17
Full
Nov 25
Last Quarter
Dec 3
New
Dec 9
First Quarter

Hourly Weather History & Observations

Time (CET) Temp. Dew Point Humidity Pressure Visibility Wind Dir Wind Speed Gust Speed Precip Events Conditions
12:00 AM 66.2 °F 41.0 °F 40% 30.21 in - West 21.9 mph - N/A   Clear
12:30 AM 66.2 °F 42.8 °F 43% 30.18 in - West 19.6 mph - N/A   Clear
1:00 AM 67 °F 42 °F 29% 30.21 in 16 mi West 21.9 mph - -   Clear
1:00 AM 66.2 °F 42.8 °F 43% 30.18 in - West 21.9 mph - N/A   Clear
1:30 AM 66.2 °F 42.8 °F 43% 30.18 in - West 21.9 mph - N/A   Clear
2:00 AM 66.2 °F 42.8 °F 43% 30.18 in - West 18.4 mph - N/A   Clear
2:30 AM 66.2 °F 41.0 °F 40% 30.18 in - West 23.0 mph - N/A   Clear
3:30 AM 66.2 °F 39.2 °F 37% 30.15 in - West 19.6 mph - N/A   Clear
4:00 AM 66.2 °F 39.2 °F 37% 30.15 in - West 20.7 mph - N/A   Clear
4:30 AM 66.2 °F 37.4 °F 35% 30.15 in - West 16.1 mph - N/A   Clear
5:00 AM 66.2 °F 37.4 °F 35% 30.15 in - West 17.3 mph - N/A   Clear
5:30 AM 66.2 °F 37.4 °F 35% 30.15 in 6.2 mi West 16.1 mph - N/A   Partly Cloudy
6:00 AM 66.2 °F 37.4 °F 35% 30.15 in 6.2 mi West 16.1 mph - N/A   Partly Cloudy
6:30 AM 66.2 °F 35.6 °F 32% 30.15 in - West 15.0 mph - N/A   Clear
7:00 AM 67 °F 36 °F 21% 30.16 in 19 mi West 13.8 mph - -   Clear
7:00 AM 66.2 °F 37.4 °F 35% 30.15 in - West 13.8 mph - N/A   Clear
7:30 AM 62.6 °F 37.4 °F 39% 30.15 in - WNW 8.1 mph - N/A   Clear
8:00 AM 64.4 °F 37.4 °F 37% 30.18 in - West 4.6 mph - N/A   Clear
8:30 AM 60.8 °F 39.2 °F 45% 30.18 in - WNW 9.2 mph - N/A   Clear
9:00 AM 60.8 °F 41.0 °F 48% 30.18 in - NW 6.9 mph - N/A   Clear
9:30 AM 64.4 °F 41.0 °F 42% 30.18 in - NW 6.9 mph - N/A   Clear
10:00 AM 66.2 °F 42.8 °F 43% 30.18 in - WNW 8.1 mph - N/A   Clear
10:30 AM 71.6 °F 42.8 °F 35% 30.18 in - NW 5.8 mph - N/A   Clear
11:00 AM 73.4 °F 41.0 °F 31% 30.18 in - WNW 9.2 mph - N/A   Clear
11:30 AM 71.6 °F 48.2 °F 43% 30.18 in - SSE 3.5 mph - N/A   Clear
12:00 PM 73.4 °F 46.4 °F 38% 30.15 in - ESE 1.2 mph - N/A   Clear
12:30 PM 75.2 °F 42.8 °F 31% 30.15 in - SSE 5.8 mph - N/A   Clear
1:00 PM 78 °F 44 °F 19% 30.14 in 22 mi SSE 8.1 mph - -   Clear
1:00 PM 75.2 °F 42.8 °F 31% 30.12 in - SSE 6.9 mph - N/A   Clear
1:30 PM 77.0 °F 44.6 °F 32% 30.12 in - SSE 8.1 mph - N/A   Clear
2:00 PM 73.4 °F 42.8 °F 33% 30.09 in - SSE 9.2 mph - N/A   Clear
2:30 PM 73.4 °F 39.2 °F 29% 30.09 in - SSE 9.2 mph - N/A   Clear
3:00 PM 75.2 °F 39.2 °F 27% 30.09 in - SSE 6.9 mph - N/A   Clear
3:30 PM 75.2 °F 41.0 °F 29% 30.09 in - ESE 2.3 mph - N/A   Clear
4:00 PM 71.6 °F 46.4 °F 41% 30.06 in - NE 6.9 mph - N/A   Clear
4:30 PM 69.8 °F 50.0 °F 49% 30.06 in - NE 5.8 mph - N/A   Clear
5:00 PM 68.0 °F 50.0 °F 52% 30.06 in - ENE 5.8 mph - N/A   Clear
5:30 PM 68.0 °F 50.0 °F 52% 30.06 in - Variable 2.3 mph - N/A   Clear
6:00 PM 68.0 °F 48.2 °F 49% 30.06 in - North 3.5 mph - N/A   Clear
6:30 PM 75.2 °F 42.8 °F 31% 30.06 in - WNW 15.0 mph - N/A   Clear
7:00 PM 76 °F 42 °F 20% 30.08 in 12 mi WNW 20.7 mph - -  
7:00 PM 75.2 °F 42.8 °F 31% 30.06 in - WNW 19.6 mph - N/A   Clear
7:30 PM 73.4 °F 42.8 °F 33% 30.06 in - WNW 18.4 mph - N/A   Clear
8:00 PM 73.4 °F 42.8 °F 33% 30.06 in - WNW 19.6 mph - N/A   Clear
8:30 PM 73.4 °F 42.8 °F 33% 30.06 in - West 20.7 mph - N/A   Clear
9:00 PM 73.4 °F 42.8 °F 33% 30.09 in - WNW 17.3 mph - N/A   Clear
9:30 PM 64.4 °F 51.8 °F 64% 30.12 in - East 10.4 mph - N/A   Clear
10:00 PM 64.4 °F 57.2 °F 77% 30.12 in - East 8.1 mph - N/A   Clear
10:30 PM 62.6 °F 57.2 °F 82% 30.15 in - ESE 3.5 mph - N/A   Clear
11:00 PM 62.6 °F 57.2 °F 82% 30.15 in - Variable 2.3 mph - N/A   Clear
11:30 PM 62.6 °F 57.2 °F 82% 30.15 in - Variable 1.2 mph - N/A   Clear